KD8BMB Weather Reports


Display with metric or nautical units.
time (UTC)temp
F
wind
direction
speed
MPH
gust
MPH
rain 1hr
in
rain 24hr
in
rain mn
in
humidity
%
barometer
mb
20260507130303 46 322 0.0 1.0 0.00 0.00 0.00 71 1012.9
20260507125801 46 289 3.0 3.0 0.00 0.00 0.00 72 1013.1
20260507125258 46 277 1.0 2.0 0.00 0.00 0.00 73 1012.9
20260507124755 45 201 1.0 1.0 0.00 0.00 0.00 76 1012.9
20260507124251 44 327 0.0 0.0 0.00 0.00 0.00 77 1012.9
20260507123750 44 254 1.0 2.0 0.00 0.00 0.00 78 1012.6
20260507123247 43 300 1.0 1.0 0.00 0.00 0.00 80 1012.7
20260507122743 42 311 0.0 0.0 0.00 0.00 0.00 82 1013.0
20260507122238 41 258 0.0 0.0 0.00 0.00 0.00 82 1013.1
20260507121734 40 284 0.0 0.0 0.00 0.00 0.00 84 1012.9
20260507121230 40 287 0.0 0.0 0.00 0.00 0.00 84 1012.9
20260507120727 40 265 0.0 0.0 0.00 0.00 0.00 84 1012.9
20260507120224 40 278 0.0 0.0 0.00 0.00 0.00 85 1013.0
20260507115720 39 287 1.0 1.0 0.00 0.00 0.00 86 1013.0
20260507115216 38 283 0.0 0.0 0.00 0.00 0.00 89 1012.6
20260507114711 38 296 0.0 0.0 0.00 0.00 0.00 94 1013.0
20260507114209 37 292 0.0 0.0 0.00 0.00 0.00 96 1012.9
20260507113706 37 288 0.0 0.0 0.00 0.00 0.00 97 1012.9
20260507113203 36 303 0.0 0.0 0.00 0.00 0.00 98 1012.7
20260507112701 36 303 0.0 0.0 0.00 0.00 0.00 98 1013.0
20260507112158 35 294 0.0 0.0 0.00 0.00 0.00 98 1012.6
20260507111655 35 290 0.0 0.0 0.00 0.00 0.00 99 1012.6
20260507111152 35 291 0.0 0.0 0.00 0.00 0.00 99 1012.6
20260507110647 34 284 0.0 0.0 0.00 0.00 0.00 99 1012.6
20260507110144 34 279 0.0 0.0 0.00 0.00 0.00 99 1012.4
20260507105641 34 278 0.0 0.0 0.00 0.00 0.00 99 1012.3
20260507105137 33 286 0.0 0.0 0.00 0.00 0.00 99 1012.4
20260507104635 33 318 0.0 0.0 0.00 0.00 0.00 98 1012.4
20260507104131 33 325 0.0 0.0 0.00 0.00 0.00 98 1012.3
20260507103627 33 283 0.0 0.0 0.00 0.00 0.00 98 1012.5
20260507103124 34 283 0.0 0.0 0.00 0.00 0.00 98 1012.6
20260507102621 34 282 0.0 0.0 0.00 0.00 0.00 98 1012.3
20260507102117 34 297 0.0 0.0 0.00 0.00 0.00 97 1012.4
20260507101613 34 300 0.0 0.0 0.00 0.00 0.00 97 1012.4
20260507101109 34 306 0.0 0.0 0.00 0.00 0.00 97 1012.3
20260507100606 34 317 0.0 0.0 0.00 0.00 0.00 97 1012.3
20260507100104 35 303 0.0 0.0 0.00 0.00 0.00 96 1012.3
20260507095602 34 38 0.0 0.0 0.00 0.00 0.00 96 1012.1
20260507095058 34 355 0.0 0.0 0.00 0.00 0.00 96 1012.4
20260507094554 35 307 0.0 0.0 0.00 0.00 0.00 95 1012.3
20260507094051 35 325 0.0 0.0 0.00 0.00 0.00 95 1012.3
20260507093549 35 317 0.0 0.0 0.00 0.00 0.00 95 1012.4
20260507093048 35 300 0.0 0.0 0.00 0.00 0.00 94 1012.4
20260507092544 35 259 0.0 0.0 0.00 0.00 0.00 94 1012.3
20260507092040 36 284 0.0 0.0 0.00 0.00 0.00 93 1012.2
20260507091537 36 283 0.0 0.0 0.00 0.00 0.00 93 1012.3
20260507091033 36 285 0.0 0.0 0.00 0.00 0.00 92 1012.5
20260507090529 36 297 0.0 0.0 0.00 0.00 0.00 92 1012.3
20260507090026 37 23 0.0 0.0 0.00 0.00 0.00 92 1012.5
20260507085523 36 312 0.0 0.0 0.00 0.00 0.00 92 1012.4
20260507085020 37 318 0.0 0.0 0.00 0.00 0.00 92 1012.5
20260507084517 36 355 0.0 0.0 0.00 0.00 0.00 92 1012.6
20260507084014 36 32 0.0 0.0 0.00 0.00 0.00 92 1012.5
20260507083510 36 296 0.0 0.0 0.00 0.00 0.00 92 1012.7
20260507083007 36 296 0.0 0.0 0.00 0.00 0.00 92 1012.7
20260507082503 36 296 0.0 0.0 0.00 0.00 0.00 92 1012.6
20260507081959 36 296 0.0 0.0 0.00 0.00 0.00 91 1012.6
20260507081455 36 296 0.0 0.0 0.00 0.00 0.00 91 1012.6
20260507080953 36 291 0.0 0.0 0.00 0.00 0.00 91 1012.7
20260507080448 36 285 0.0 0.0 0.00 0.00 0.00 91 1012.6
20260507075944 35 292 0.0 0.0 0.00 0.00 0.00 92 1012.4
20260507075441 35 293 0.0 0.0 0.00 0.00 0.00 92 1012.5
20260507074937 36 295 0.0 0.0 0.00 0.00 0.00 92 1012.6
20260507074433 36 304 0.0 0.0 0.00 0.00 0.00 91 1012.5
20260507073931 36 338 0.0 0.0 0.00 0.00 0.00 91 1012.7
20260507073422 36 336 0.0 0.0 0.00 0.00 0.00 91 1012.6
20260507072919 36 287 0.0 0.0 0.00 0.00 0.00 90 1012.4
20260507072417 36 287 0.0 0.0 0.00 0.00 0.00 89 1012.6
20260507071915 37 284 0.0 0.0 0.00 0.00 0.00 89 1012.7
20260507071411 37 284 0.0 0.0 0.00 0.00 0.00 89 1012.6
20260507070907 37 32 0.0 0.0 0.00 0.00 0.00 89 1012.4
20260507070405 37 28 0.0 0.0 0.00 0.00 0.00 90 1012.5
20260507065902 37 326 0.0 0.0 0.00 0.00 0.00 89 1012.5
20260507065358 36 31 0.0 0.0 0.00 0.00 0.00 90 1012.5
20260507064855 36 302 0.0 0.0 0.00 0.00 0.00 89 1012.4
20260507064354 37 293 0.0 0.0 0.00 0.00 0.00 89 1012.7
20260507063851 37 278 0.0 0.0 0.00 0.00 0.00 89 1012.5
20260507063348 37 264 0.0 0.0 0.00 0.00 0.00 88 1012.5
20260507062845 37 307 0.0 0.0 0.00 0.00 0.00 88 1013.0
20260507062341 37 323 0.0 0.0 0.00 0.00 0.00 87 1012.6
20260507061839 37 306 0.0 0.0 0.00 0.00 0.00 87 1012.7
20260507061337 38 305 0.0 0.0 0.00 0.00 0.00 86 1012.6
20260507060836 38 283 0.0 0.0 0.00 0.00 0.00 86 1012.7
20260507060332 38 302 0.0 0.0 0.00 0.00 0.00 85 1012.7
20260507055829 39 328 0.0 0.0 0.00 0.00 0.00 83 1012.9
20260507055324 39 322 0.0 0.0 0.00 0.00 0.00 82 1012.7
20260507054821 39 39 0.0 1.0 0.00 0.00 0.00 82 1012.6
20260507054316 40 267 0.0 0.0 0.00 0.00 0.00 81 1012.6
20260507053814 40 265 0.0 0.0 0.00 0.00 0.00 81 1012.7
20260507053312 40 276 0.0 0.0 0.00 0.00 0.00 80 1012.7
20260507052811 40 267 0.0 0.0 0.00 0.00 0.00 79 1012.7
20260507052307 41 343 0.0 0.0 0.00 0.00 0.00 78 1012.7
20260507051805 41 284 0.0 0.0 0.00 0.00 0.00 77 1012.7
20260507051302 42 284 0.0 0.0 0.00 0.00 0.00 76 1012.9
20260507050758 42 284 0.0 0.0 0.00 0.00 0.00 74 1012.7
20260507050255 42 285 0.0 0.0 0.00 0.00 0.00 72 1012.9
20260507045751 43 285 0.0 0.0 0.00 0.00 0.00 72 1013.0
20260507045248 43 284 0.0 0.0 0.00 0.00 0.00 70 1012.7
20260507044746 44 285 0.0 0.0 0.00 0.00 0.00 68 1012.6
20260507044242 44 285 0.0 0.0 0.00 0.00 0.00 66 1012.7
20260507043738 44 298 0.0 0.0 0.00 0.00 0.00 64 1012.7
20260507043235 45 298 0.0 0.0 0.00 0.00 0.00 64 1012.6
20260507042731 45 299 0.0 0.0 0.00 0.00 0.00 64 1013.0
20260507042226 46 302 0.0 0.0 0.00 0.00 0.00 62 1012.7
20260507041724 46 303 0.0 0.0 0.00 0.00 0.00 62 1012.7
20260507041221 46 263 0.0 0.0 0.00 0.00 0.00 61 1013.0
20260507040718 46 349 0.0 0.0 0.00 0.00 0.00 62 1012.9
20260507040214 46 319 0.0 0.0 0.00 0.00 0.00 61 1012.7
20260507035710 47 4 0.0 0.0 0.00 0.00 0.00 59 1012.6
20260507035205 47 287 0.0 0.0 0.00 0.00 0.00 58 1012.9
20260507034702 47 256 0.0 0.0 0.00 0.00 0.00 58 1012.9
20260507034200 47 305 0.0 0.0 0.00 0.00 0.00 57 1013.0
20260507033658 47 284 1.0 1.0 0.00 0.00 0.00 57 1013.0
20260507033155 48 264 1.0 1.0 0.00 0.00 0.00 57 1013.0
20260507032653 48 308 1.0 1.0 0.00 0.00 0.00 57 1012.7
20260507032148 48 288 1.0 2.0 0.00 0.00 0.00 56 1012.5
20260507031645 47 285 1.0 1.0 0.00 0.00 0.00 58 1012.7
20260507031142 48 271 0.0 0.0 0.00 0.00 0.00 58 1012.7
20260507030639 48 300 0.0 0.0 0.00 0.00 0.00 57 1012.7
20260507030137 48 249 0.0 0.0 0.00 0.00 0.00 57 1012.6
20260507025633 48 285 0.0 0.0 0.00 0.00 0.00 57 1012.9
20260507025130 48 240 1.0 1.0 0.00 0.00 0.00 56 1012.6
20260507024628 48 270 2.0 2.0 0.00 0.00 0.00 55 1012.7
20260507024125 48 288 1.0 1.0 0.00 0.00 0.00 56 1012.7
20260507023621 48 283 0.0 0.0 0.00 0.00 0.00 55 1012.4
20260507023119 48 283 0.0 0.0 0.00 0.00 0.00 55 1012.6
20260507022615 48 278 1.0 1.0 0.00 0.00 0.00 54 1012.6
20260507022110 48 287 1.0 1.0 0.00 0.00 0.00 55 1012.5
20260507021607 49 257 1.0 1.0 0.00 0.00 0.00 54 1012.5
20260507021103 49 280 1.0 1.0 0.00 0.00 0.00 55 1012.2
20260507020602 49 297 0.0 0.0 0.00 0.00 0.00 54 1012.4
20260507020057 49 284 1.0 1.0 0.00 0.00 0.00 55 1012.2
20260507015555 49 238 2.0 2.0 0.00 0.00 0.00 55 1012.3
20260507015047 49 230 1.0 1.0 0.00 0.00 0.00 56 1012.3
20260507014543 49 281 0.0 1.0 0.00 0.00 0.00 57 1012.2
20260507014033 49 245 1.0 1.0 0.00 0.00 0.00 56 1012.1
20260507013530 49 227 1.0 1.0 0.00 0.00 0.00 57 1012.3
20260507013027 49 261 0.0 0.0 0.00 0.00 0.00 57 1012.1
20260507012524 49 278 0.0 0.0 0.00 0.00 0.00 57 1012.0
20260507012020 49 271 0.0 0.0 0.00 0.00 0.00 57 1012.0
20260507011518 49 266 0.0 0.0 0.00 0.00 0.00 57 1012.1
20260507011014 49 269 0.0 0.0 0.00 0.00 0.00 58 1012.0
20260507010509 49 269 0.0 0.0 0.00 0.00 0.00 58 1012.0
20260507010006 49 238 0.0 0.0 0.00 0.00 0.00 57 1011.9
20260507005503 50 281 0.0 0.0 0.00 0.00 0.00 57 1012.0
20260507004959 50 261 0.0 0.0 0.00 0.00 0.00 57 1011.8
20260507004456 50 244 0.0 0.0 0.00 0.00 0.00 55 1012.0
20260507003954 50 284 0.0 0.0 0.00 0.00 0.00 56 1011.9
20260507003448 50 276 0.0 0.0 0.00 0.00 0.00 55 1012.0
20260507002944 50 277 0.0 0.0 0.00 0.00 0.00 56 1012.0
20260507002441 50 311 0.0 0.0 0.00 0.00 0.00 55 1011.9
20260507001938 50 319 1.0 1.0 0.00 0.00 0.00 52 1011.9
20260507001434 50 317 0.0 0.0 0.00 0.00 0.00 52 1011.9
20260507000932 51 305 0.0 0.0 0.00 0.00 0.00 53 1011.8
20260507000427 51 309 0.0 0.0 0.00 0.00 0.00 52 1011.6
20260506235923 51 292 3.0 5.0 0.00 0.00 0.00 51 1011.8
20260506235420 51 222 1.0 1.0 0.00 0.00 0.00 51 1011.7
20260506234910 51 277 0.0 0.0 0.00 0.00 0.00 51 1011.8
20260506234409 51 263 0.0 0.0 0.00 0.00 0.00 51 1011.5
20260506233906 51 242 2.0 2.0 0.00 0.00 0.00 51 1011.7
20260506233401 51 221 3.0 3.0 0.00 0.00 0.00 50 1011.7
20260506232859 51 206 4.0 5.0 0.00 0.00 0.00 48 1011.8
20260506232354 51 207 3.0 3.0 0.00 0.00 0.00 49 1011.9
20260506231851 51 320 2.0 3.0 0.00 0.00 0.00 50 1011.6
20260506231349 51 288 3.0 5.0 0.00 0.00 0.00 50 1011.6
20260506230846 51 226 2.0 2.0 0.00 0.00 0.00 49 1011.7
20260506230342 51 253 2.0 3.0 0.00 0.00 0.00 50 1011.9
20260506225838 51 222 2.0 2.0 0.00 0.00 0.00 50 1011.7
20260506225336 52 237 3.0 5.0 0.00 0.00 0.00 50 1011.6
20260506224833 52 203 1.0 1.0 0.00 0.00 0.00 51 1011.7
20260506224330 52 245 1.0 1.0 0.00 0.00 0.00 49 1011.8
20260506223826 52 235 3.0 3.0 0.00 0.00 0.00 49 1011.8
20260506223321 52 216 1.0 2.0 0.00 0.00 0.00 51 1012.0
20260506222819 52 214 5.0 6.0 0.00 0.00 0.00 49 1012.0
20260506222313 52 205 5.0 6.0 0.00 0.00 0.00 49 1012.2
20260506221807 52 281 2.0 5.0 0.00 0.00 0.00 50 1012.1
20260506221304 52 218 3.0 5.0 0.00 0.00 0.00 49 1012.1
20260506220802 52 286 0.0 1.0 0.00 0.00 0.00 49 1012.0
20260506220256 52 217 2.0 2.0 0.00 0.00 0.00 49 1012.0
20260506215753 53 291 8.0 10.0 0.00 0.00 0.00 48 1011.8
20260506215249 52 283 1.0 2.0 0.00 0.00 0.00 49 1012.0
20260506214745 53 232 1.0 3.0 0.00 0.00 0.00 49 1012.0
20260506214242 52 218 3.0 3.0 0.00 0.00 0.00 49 1012.0
20260506213741 52 294 3.0 5.0 0.00 0.00 0.00 49 1011.9
20260506213237 52 283 3.0 6.0 0.00 0.00 0.00 49 1011.9
20260506212735 53 289 3.0 6.0 0.00 0.00 0.00 48 1011.8
20260506212231 52 312 1.0 2.0 0.00 0.00 0.00 49 1012.1
20260506211725 52 273 0.0 1.0 0.00 0.00 0.00 50 1011.9
20260506211222 52 241 4.0 5.0 0.00 0.00 0.00 49 1012.0
20260506210719 53 236 3.0 3.0 0.00 0.00 0.00 48 1011.7
20260506210216 53 246 2.0 2.0 0.00 0.00 0.00 48 1011.9
20260506205713 52 312 3.0 3.0 0.00 0.00 0.00 49 1012.0
20260506205208 52 241 1.0 2.0 0.00 0.00 0.00 49 1011.9
20260506204706 52 231 1.0 5.0 0.00 0.00 0.00 48 1011.9
20260506204203 53 298 2.0 2.0 0.00 0.00 0.00 48 1011.9
20260506203701 53 283 3.0 5.0 0.00 0.00 0.00 47 1011.9
20260506203158 53 208 1.0 2.0 0.00 0.00 0.00 47 1012.1
20260506202656 52 234 0.0 0.0 0.00 0.00 0.00 47 1012.1
20260506202151 53 234 1.0 1.0 0.00 0.00 0.00 49 1012.0
20260506201649 52 206 4.0 5.0 0.00 0.00 0.00 48 1012.1
20260506201145 52 240 1.0 1.0 0.00 0.00 0.00 48 1012.2
20260506200642 52 311 3.0 3.0 0.00 0.00 0.00 48 1012.1
20260506200138 52 246 0.0 1.0 0.00 0.00 0.00 49 1012.3
20260506195635 52 246 3.0 5.0 0.00 0.00 0.00 49 1012.4
20260506195131 52 330 2.0 2.0 0.00 0.00 0.00 48 1012.0
20260506194629 52 271 1.0 1.0 0.00 0.00 0.00 49 1012.2
20260506194125 52 321 5.0 6.0 0.00 0.00 0.00 47 1012.4
20260506193623 51 278 1.0 3.0 0.00 0.00 0.00 48 1012.4
20260506193120 51 249 0.0 0.0 0.00 0.00 0.00 48 1012.5
20260506192617 51 327 4.0 5.0 0.00 0.00 0.00 50 1012.6
20260506192113 51 356 3.0 3.0 0.00 0.00 0.00 50 1012.5
20260506191609 51 323 3.0 5.0 0.00 0.00 0.00 50 1012.3
20260506191105 53 355 5.0 6.0 0.00 0.00 0.00 47 1012.6
20260506190603 52 294 4.0 5.0 0.00 0.00 0.00 48 1012.6
20260506190100 51 288 6.0 9.0 0.00 0.00 0.00 49 1012.6
20260506185557 51 286 3.0 5.0 0.00 0.00 0.00 49 1012.6
20260506185053 51 244 1.0 1.0 0.00 0.00 0.00 50 1012.5
20260506184551 51 290 4.0 5.0 0.00 0.00 0.00 49 1012.5
20260506184048 51 256 3.0 3.0 0.00 0.00 0.00 49 1012.6
20260506183544 53 332 4.0 9.0 0.00 0.00 0.00 47 1012.9
20260506183040 53 284 0.0 1.0 0.00 0.00 0.00 46 1012.7
20260506182538 52 228 3.0 6.0 0.00 0.00 0.00 48 1012.9
20260506182035 51 237 0.0 0.0 0.00 0.00 0.00 49 1012.7
20260506181533 51 241 5.0 7.0 0.00 0.00 0.00 49 1012.9
20260506181029 51 312 2.0 2.0 0.00 0.00 0.00 49 1012.9
20260506180526 51 228 5.0 8.0 0.00 0.00 0.00 49 1012.7
20260506180023 50 341 3.0 5.0 0.00 0.00 0.00 49 1013.0
20260506175519 50 316 0.0 0.0 0.00 0.00 0.00 52 1012.9
20260506175016 50 300 0.0 0.0 0.00 0.00 0.00 50 1012.7
20260506174515 50 326 2.0 3.0 0.00 0.00 0.00 49 1013.0
20260506174010 50 56 0.0 1.0 0.00 0.00 0.00 52 1013.4
20260506173508 50 357 0.0 0.0 0.00 0.00 0.00 53 1013.2
20260506173005 49 25 1.0 2.0 0.00 0.00 0.00 54 1013.2
20260506172502 49 2 3.0 6.0 0.00 0.00 0.00 53 1013.3
20260506171958 50 1 1.0 2.0 0.00 0.00 0.00 53 1012.9
20260506171455 50 24 0.0 0.0 0.00 0.00 0.00 53 1013.1
20260506170953 51 309 0.0 0.0 0.00 0.00 0.00 54 1013.0
20260506170449 52 10 5.0 8.0 0.00 0.00 0.00 54 1013.2
20260506165942 51 319 0.0 0.0 0.00 0.00 0.00 53 1013.0
20260506165441 50 302 6.0 8.0 0.00 0.00 0.00 54 1013.0
20260506164936 50 43 4.0 5.0 0.00 0.00 0.00 54 1013.2
20260506164433 49 278 1.0 2.0 0.00 0.00 0.00 58 1013.1
20260506163931 49 74 0.0 0.0 0.00 0.00 0.00 58 1013.1
20260506163425 50 47 0.0 1.0 0.00 0.00 0.00 55 1013.3
20260506162915 52 124 0.0 0.0 0.00 0.00 0.00 54 1013.5
20260506162413 51 234 0.0 1.0 0.00 0.00 0.00 57 1013.5
20260506161910 48 46 1.0 1.0 0.00 0.00 0.00 61 1013.6
20260506161408 48 304 0.0 0.0 0.00 0.00 0.00 60 1013.3
20260506160900 50 115 0.0 2.0 0.00 0.00 0.00 58 1013.4
20260506160356 49 298 0.0 1.0 0.00 0.00 0.00 61 1013.5
20260506155854 47 4 1.0 2.0 0.00 0.00 0.00 65 1013.5
20260506155351 48 36 5.0 7.0 0.00 0.00 0.00 63 1013.5
20260506153508 48 111 1.0 2.0 0.00 0.00 0.00 62 1013.3
20260506153006 47 311 3.0 5.0 0.00 0.00 0.00 63 1013.4
20260506152502 47 58 5.0 7.0 0.00 0.00 0.00 64 1013.2
20260506152001 48 344 4.0 6.0 0.00 0.00 0.00 63 1013.2
20260506151458 48 233 0.0 0.0 0.00 0.00 0.00 63 1013.1
20260506150955 46 342 1.0 2.0 0.00 0.00 0.00 64 1013.1
20260506150451 46 334 4.0 5.0 0.00 0.00 0.00 67 1013.1
20260506145948 46 11 3.0 5.0 0.00 0.00 0.00 67 1013.2
20260506145444 46 351 1.0 1.0 0.00 0.00 0.00 67 1013.1
20260506144942 47 278 3.0 3.0 0.00 0.00 0.00 66 1013.2
20260506144438 46 49 3.0 6.0 0.00 0.00 0.00 67 1013.0
20260506143937 46 40 2.0 2.0 0.00 0.00 0.00 67 1013.2
20260506143433 46 33 4.0 5.0 0.00 0.00 0.00 66 1012.7
20260506142932 46 356 1.0 2.0 0.00 0.00 0.00 65 1013.0
20260506142430 47 13 1.0 2.0 0.00 0.00 0.00 65 1012.9
20260506141927 47 68 0.0 1.0 0.00 0.00 0.00 67 1012.5
20260506141425 47 68 1.0 2.0 0.00 0.00 0.00 67 1012.9
20260506140923 46 76 1.0 1.0 0.00 0.00 0.00 69 1012.5
20260506140420 46 46 3.0 5.0 0.00 0.00 0.00 68 1012.7
20260506135917 44 61 4.0 6.0 0.00 0.00 0.00 71 1012.9
20260506135414 46 64 0.0 1.0 0.00 0.00 0.00 71 1012.4
20260506134910 46 34 2.0 2.0 0.00 0.00 0.00 70 1012.6
20260506134406 46 358 2.0 3.0 0.00 0.00 0.00 71 1012.7
20260506133903 44 52 1.0 2.0 0.00 0.00 0.00 72 1012.5
20260506133400 44 88 3.0 5.0 0.00 0.00 0.00 73 1012.3
20260506132857 44 34 2.0 3.0 0.00 0.00 0.00 74 1012.2
20260506132354 44 349 0.0 1.0 0.00 0.00 0.00 74 1012.4
20260506131852 43 340 4.0 6.0 0.00 0.00 0.00 75 1012.3
20260506131348 44 30 1.0 2.0 0.00 0.00 0.00 75 1012.3
20260506130845 43 57 2.0 2.0 0.00 0.00 0.00 75 1012.2